Location: Ertinghausen
(51.6624°N, 9.7874°E)
Time: 14:41:28
(UTC+00:00)

CZ-2C R/B - Pass Details

Date: 21 August 2024
Orbit: 703 x 903 km, 98.2° (Epoch: 14 September)

Event Time Altitude Azimuth Distance (km) Brightness Sun altitude
Rises 03:12:32 0° 5° (N) 3,256 6.8 -9.6°
Reaches altitude 10° 03:15:26 10° 347° (NNW) 2,361 5.8 -9.2°
Maximum altitude 03:18:56 19° 305° (NW) 1,866 4.8 -8.8°
Drops below altitude 10° 03:22:33 10° 262° (W) 2,441 5.0 -8.3°
Enters shadow 03:23:05 - 259° (WSW) 2,590 5.1 -8.2°
